| time (UTC) | temp F | wind direction | speed knots | gust knots | rain 1hr in | rain 24hr in | rain mn in | humidity % | barometer mb |
| 20260510053917 | 44 | 332 | 0.9 | 1.7 | 0.00 | 0.00 | 0.00 | 100 | 1007.0 |
| 20260510050917 | 45 | 298 | 6.1 | 8.7 | 0.00 | 0.00 | 0.00 | 100 | 1006.9 |
| 20260510045417 | 46 | 282 | 1.7 | 4.3 | 0.00 | 0.00 | 0.00 | 100 | 1006.6 |
| 20260510043917 | 46 | 241 | 0.0 | 0.0 | 0.00 | 0.00 | 0.00 | 100 | 1006.3 |
| 20260510042417 | 46 | 241 | 0.0 | 0.0 | 0.00 | 0.00 | 0.00 | 100 | 1006.2 |
| 20260510040917 | 45 | 231 | 0.0 | 0.0 | 0.00 | 0.00 | 0.00 | 100 | 1006.0 |
| 20260510035417 | 46 | 231 | 0.0 | 0.0 | 0.00 | 0.00 | 0.00 | 100 | 1005.1 |
| 20260510033917 | 46 | 231 | 0.0 | 0.0 | 0.00 | 0.00 | 0.00 | 100 | 1005.1 |
| 20260510032417 | 46 | 231 | 0.0 | 0.0 | 0.00 | 0.00 | 0.00 | 100 | 1005.1 |
| 20260510030917 | 47 | 231 | 0.0 | 0.0 | 0.00 | 0.00 | 0.00 | 100 | 1005.0 |
| 20260510025417 | 47 | 206 | 1.7 | 1.7 | 0.00 | 0.00 | 0.00 | 100 | 1005.0 |
| 20260510022417 | 48 | 207 | 1.7 | 3.5 | 0.00 | 0.00 | 0.00 | 100 | 1004.9 |
| 20260510015417 | 48 | 189 | 1.7 | 3.5 | 0.00 | 0.00 | 0.00 | 100 | 1004.6 |
| 20260510013917 | 49 | 228 | 3.5 | 4.3 | 0.00 | 0.00 | 0.00 | 100 | 1004.3 |
| 20260510012417 | 49 | 221 | 2.6 | 4.3 | 0.00 | 0.00 | 0.00 | 100 | 1004.2 |
| 20260510002417 | 51 | 222 | 4.3 | 7.0 | 0.00 | 0.00 | 0.00 | 100 | 1003.2 |
| 20260510000917 | 51 | 227 | 0.9 | 2.6 | 0.00 | 0.00 | 0.00 | 100 | 1002.8 |
| 20260509235417 | 51 | 225 | 4.3 | 7.0 | 0.00 | 0.00 | 0.00 | 100 | 1002.9 |
| 20260509233917 | 51 | 221 | 4.3 | 7.0 | 0.00 | 0.00 | 0.00 | 100 | 1002.3 |
| 20260509230917 | 49 | 247 | 2.6 | 5.2 | 0.00 | 0.00 | 0.00 | 100 | 1002.7 |
| 20260509225418 | 49 | 248 | 5.2 | 9.6 | 0.00 | 0.00 | 0.00 | 100 | 1004.2 |
| 20260509223917 | 50 | 283 | 6.1 | 7.8 | 0.00 | 0.00 | 0.00 | 100 | 1004.2 |
| 20260509222417 | 55 | 278 | 17.4 | 23.5 | 0.00 | 0.00 | 0.00 | 100 | 1004.8 |
| 20260509220918 | 59 | 256 | 2.6 | 3.5 | 0.00 | 0.00 | 0.00 | 96 | 1002.4 |
| 20260509215417 | 59 | 253 | 1.7 | 3.5 | 0.00 | 0.00 | 0.00 | 91 | 1002.0 |
| 20260509213917 | 60 | 173 | 3.5 | 5.2 | 0.00 | 0.00 | 0.00 | 93 | 1002.1 |
| 20260509212417 | 60 | 184 | 1.7 | 0.9 | 0.00 | 0.00 | 0.00 | 95 | 1001.7 |
| 20260509205417 | 60 | 212 | 4.3 | 7.8 | 0.00 | 0.00 | 0.00 | 88 | 1002.2 |
| 20260509203917 | 61 | 210 | 4.3 | 7.0 | 0.00 | 0.00 | 0.00 | 87 | 1002.3 |
| 20260509202417 | 60 | 222 | 4.3 | 7.8 | 0.00 | 0.00 | 0.00 | 88 | 1002.6 |
| 20260509200917 | 62 | 225 | 4.3 | 7.0 | 0.00 | 0.00 | 0.00 | 84 | 1003.1 |
| 20260509195417 | 62 | 242 | 4.3 | 6.1 | 0.00 | 0.00 | 0.00 | 85 | 1003.2 |
| 20260509192417 | 63 | 211 | 6.1 | 10.4 | 0.00 | 0.00 | 0.00 | 81 | 1003.3 |
| 20260509190917 | 63 | 248 | 5.2 | 8.7 | 0.00 | 0.00 | 0.00 | 86 | 1003.4 |
| 20260509183917 | 63 | 235 | 8.7 | 12.2 | 0.00 | 0.00 | 0.00 | 76 | 1003.8 |
| 20260509182417 | 64 | 248 | 8.7 | 10.4 | 0.00 | 0.00 | 0.00 | 81 | 1003.6 |
| 20260509175417 | 62 | 259 | 4.3 | 7.0 | 0.00 | 0.00 | 0.00 | 88 | 1004.1 |
| 20260509173917 | 61 | 259 | 6.1 | 12.2 | 0.00 | 0.00 | 0.00 | 88 | 1004.2 |
| 20260509172417 | 61 | 208 | 8.7 | 13.9 | 0.00 | 0.00 | 0.00 | 86 | 1004.5 |
| 20260509165417 | 62 | 216 | 9.6 | 13.0 | 0.00 | 0.00 | 0.00 | 83 | 1004.7 |
| 20260509163917 | 62 | 203 | 10.4 | 13.9 | 0.00 | 0.00 | 0.00 | 85 | 1004.8 |
| 20260509160917 | 62 | 216 | 2.6 | 4.3 | 0.00 | 0.00 | 0.00 | 85 | 1005.1 |
| 20260509153917 | 61 | 219 | 7.8 | 13.9 | 0.00 | 0.00 | 0.00 | 94 | 1005.4 |
| 20260509150917 | 58 | 204 | 7.0 | 10.4 | 0.00 | 0.00 | 0.00 | 98 | 1005.3 |
| 20260509145417 | 59 | 198 | 4.3 | 9.6 | 0.00 | 0.00 | 0.00 | 100 | 1005.2 |
| 20260509143917 | 58 | 131 | 3.5 | 5.2 | 0.00 | 0.00 | 0.00 | 99 | 1005.4 |
| 20260509142417 | 57 | 213 | 5.2 | 8.7 | 0.00 | 0.00 | 0.00 | 100 | 1005.3 |
| 20260509140916 | 57 | 219 | 3.5 | 5.2 | 0.00 | 0.00 | 0.00 | 100 | 1005.4 |
| 20260509135417 | 56 | 86 | 1.7 | 3.5 | 0.00 | 0.00 | 0.00 | 100 | 1005.5 |
| 20260509132417 | 54 | 254 | 1.7 | 2.6 | 0.00 | 0.00 | 0.00 | 100 | 1005.7 |
| 20260509130917 | 53 | 236 | 1.7 | 4.3 | 0.00 | 0.00 | 0.00 | 100 | 1005.7 |
| 20260509125417 | 53 | 232 | 3.5 | 4.3 | 0.00 | 0.00 | 0.00 | 100 | 1005.7 |
| 20260509123917 | 52 | 220 | 2.6 | 5.2 | 0.00 | 0.00 | 0.00 | 100 | 1005.6 |
| 20260509122417 | 51 | 219 | 2.6 | 4.3 | 0.00 | 0.00 | 0.00 | 100 | 1005.6 |
| 20260509120917 | 49 | 194 | 6.1 | 8.7 | 0.00 | 0.00 | 0.00 | 100 | 1005.8 |
| 20260509115416 | 48 | 220 | 0.0 | 0.0 | 0.00 | 0.00 | 0.00 | 100 | 1005.5 |
| 20260509113917 | 46 | 227 | 1.7 | 2.6 | 0.00 | 0.00 | 0.00 | 100 | 1005.4 |
| 20260509112416 | 45 | 254 | 1.7 | 2.6 | 0.00 | 0.00 | 0.00 | 100 | 1005.3 |
| 20260509110917 | 45 | 230 | 1.7 | 3.5 | 0.00 | 0.00 | 0.00 | 100 | 1005.3 |
| 20260509105417 | 44 | 107 | 0.0 | 0.0 | 0.00 | 0.00 | 0.00 | 100 | 1005.3 |
| 20260509103917 | 44 | 253 | 0.0 | 0.0 | 0.00 | 0.00 | 0.00 | 100 | 1005.5 |
| 20260509102417 | 44 | 220 | 0.0 | 0.0 | 0.00 | 0.00 | 0.00 | 100 | 1005.4 |
| 20260509100917 | 43 | 213 | 0.0 | 3.5 | 0.00 | 0.00 | 0.00 | 100 | 1005.5 |
| 20260509095417 | 43 | 196 | 0.0 | 0.0 | 0.00 | 0.00 | 0.00 | 100 | 1005.4 |
| 20260509093916 | 43 | 196 | 0.0 | 0.0 | 0.00 | 0.00 | 0.00 | 100 | 1005.7 |
| 20260509092416 | 43 | 215 | 0.9 | 2.6 | 0.00 | 0.00 | 0.00 | 100 | 1005.9 |
| 20260509090916 | 43 | 213 | 2.6 | 3.5 | 0.00 | 0.00 | 0.00 | 100 | 1005.8 |
| 20260509085416 | 43 | 244 | 1.7 | 1.7 | 0.00 | 0.00 | 0.00 | 100 | 1005.9 |
| 20260509083917 | 42 | 218 | 1.7 | 1.7 | 0.00 | 0.00 | 0.00 | 100 | 1005.9 |
| 20260509082416 | 42 | 238 | 0.9 | 1.7 | 0.00 | 0.00 | 0.00 | 100 | 1005.8 |
| 20260509080916 | 42 | 224 | 0.9 | 1.7 | 0.00 | 0.00 | 0.00 | 100 | 1005.8 |
| 20260509075417 | 42 | 215 | 0.0 | 0.9 | 0.00 | 0.00 | 0.00 | 100 | 1005.7 |
| 20260509072417 | 40 | 206 | 0.0 | 0.9 | 0.00 | 0.00 | 0.00 | 100 | 1005.9 |
| 20260509070917 | 40 | 212 | 0.0 | 0.0 | 0.00 | 0.00 | 0.00 | 100 | 1006.0 |
| 20260509065416 | 40 | 193 | 0.0 | 0.0 | 0.00 | 0.00 | 0.00 | 100 | 1006.2 |
| 20260509063916 | 40 | 220 | 0.0 | 0.0 | 0.00 | 0.00 | 0.00 | 100 | 1006.4 |